Skip Page Navigation
NASA JPL Caltech
NASA Logo - Jet Propulsion Laboratory + View the NASA Portal
+ Center for Near-Earth Object Studies
JPL Home Earth Solar System Stars & Galaxies Technology
JPL Solar System Dynamics
BODIES ORBITS EPHEMERIDES TOOLS PHYSICAL DATA DISCOVERY FAQ SITE MAP

Significant website upgrade scheduled for September 27. More details available here.

JPL Small-Body Database Browser
Search: [ help ]  
1381 Danubia (1930 QJ)
Classification: Main-belt Asteroid          SPK-ID: 2001381
Ephemeris | Orbit Diagram | Orbital Elements | Mission Design | Physical Parameters | Discovery Circumstances ]

[ hide orbit diagram ]

For accurate long-term ephemerides, please instead use our Horizons system.This orbit viewer was implemented using two-body methods, and hence should not be used for determining accurate long-term trajectories (over several years or decades) or planetary encounter circumstances.


Orbital Elements at Epoch 2459396.5 (2021-Jul-01.0) TDB
Reference: JPL 35 (heliocentric ecliptic J2000)
 Element Value Uncertainty (1-sigma)   Units 
e .1803424460891022 1.5492e-08  
a 2.48822049830222 6.6565e-09 au
q 2.039488727229353 4.1743e-08 au
i 4.697660664829898 7.4935e-07 deg
node 351.7886511401272 2.2338e-06 deg
peri 29.08866797351369 6.9586e-06 deg
M 20.34101346641416 8.8743e-06 deg
tp 2459315.496868473351
(2021-Apr-10.99686847)
3.5133e-05 TDB
period 1433.612312274538
3.93
5.7528e-06
1.575e-08
d
yr
n .2511139147715828 1.0077e-09 deg/d
Q 2.936952269375087 7.857e-09 au
  Orbit Determination Parameters
   # obs. used (total)      2711  
   data-arc span      34151 days (93.50 yr)  
   first obs. used      1928-01-29  
   last obs. used      2021-07-30  
   planetary ephem.      DE441  
   SB-pert. ephem.      SB441-N16  
   condition code      0  
   norm. resid. RMS      .44716  
   source      ORB  
   producer      Otto Matic  
   solution date      2021-Aug-25 07:36:37  

Additional Information
 Earth MOID = 1.04263 au 
 Jupiter MOID = 2.53732 au 
 T_jup = 3.447 
[ show covariance matrix ]

Ephemeris | Orbit Diagram | Orbital Elements | Mission Design | Physical Parameters | Discovery Circumstances ]

Physical Parameter Table
Parameter Symbol Value Units Sigma Reference Notes
absolute magnitude H 12.40   n/a MPO636082  
diameter diameter 19.825 km 0.086 urn:nasa:pds:neowise_diameters_albedos::2.0[mainbelt] (http://adsabs.harvard.edu/abs/2014ApJ...791..121M)  
geometric albedo albedo 0.069   0.011 urn:nasa:pds:neowise_diameters_albedos::2.0[mainbelt] (http://adsabs.harvard.edu/abs/2014ApJ...791..121M)  
B-V BV 0.660   0.020 EAR-A-5-DDR-UBV-MEAN-VALUES-V1.2 #obs=1; phase=13.50 deg.
U-B UB 0.340   0.060 EAR-A-5-DDR-UBV-MEAN-VALUES-V1.2 #obs=1; phase=13.50 deg.

1381 Danubia (1930 QJ)          Discovered 1930-Aug-20 by Skvortsov, E. at Simeis
Reference: DISCOVERY.DBLast Updated: 2003-08-29

Alternate Designations
 1930 QJ = 1928 BE = 1932 CG1 = 1936 DC = 1969 OV 
Ephemeris | Orbit Diagram | Orbital Elements | Mission Design | Physical Parameters | Discovery Circumstances ]
ABOUT SSD CREDITS/AWARDS PRIVACY/COPYRIGHT GLOSSARY LINKS
FirstGov 2021-Sep-23 07:57 UT
(server date/time)  
NASA Home Page
Site Manager:   Ryan S. Park
Webmaster  Alan B. Chamberlin